Погода в Верхнем Ломове

Россия / Пензенская область     53°27′54″N   43°33′01″E
темп.,
°C
ветер,
м/с
пор.,
м/с
влажн.,
%
обл.,
%
осадки,
мм/ч
давл.,
гПа
погр.,
м
20 июня, вс
вс2000:00+16з22856 0.0 102512
03:00+15зсз22880 0.0 102511
06:00+18сз12820 0.0 102585
09:00+23с11680 0.0 1024465
12:00+26з00550 0.0 1024983
15:00+27всв00520 0.0 10231234
18:00+26вюв11640 0.0 1022460
21:00+20юв11730 0.0 102311
21 июня, пн
пн2100:00+18ююв117738 0.0 102311
03:00+17вюв118468 0.0 102311
06:00+20вюв128182 0.0 102373
09:00+24вюв227097 0.0 1023462
12:00+27ююв2258100 0.0 10231243
15:00+28ю2254100 0.0 10221481
18:00+27юв1268100 0.0 1021363
21:00+22ююв017499 0.0 102211
22 июня, вт
вт2200:00+20в118298 0.0 102311
03:00+19вюв118697 0.0 102311
06:00+22в228257 0.0 102381
09:00+26вюв33694 0.0 1023553
12:00+28вюв225934 0.0 10231464
15:00+29вюв22524 0.0 10221927
18:00+28вюв236692 0.0 1021127
21:00+23в116785 0.0 102211
23 июня, ср
ср2300:00+21вюв227216 0.0 102211
03:00+20вюв117630 0.0 102211
06:00+23юв11750 0.0 102259
09:00+26вюв11630 0.0 1022468
12:00+29юв22550 0.0 10221208
15:00+30зсз125039 0.0 10211920
18:00+29з126333 0.0 1021367
21:00+24зсз22700 0.0 102111
24 июня, чт
чт2400:00+22сз11740 0.0 102111
03:00+21с11780 0.0 102111
06:00+24зсз11750 0.0 102156
09:00+27с22640 0.0 1021436
12:00+30ссв23540 0.0 10211269
15:00+30ссв33510 0.0 10201826
18:00+30с12590 0.0 10201337
21:00+24з22660 0.0 101917